Weather History for KNEW - September, 2013

Change the Weather History Date:

Monday, September 30, 2013

  Actual Average Record
Temperature  
Mean Temperature 80 °F 76 °F  
Max Temperature 85 °F 84 °F 92 °F (1981)
Min Temperature 74 °F 68 °F 42 °F (1967)
Degree Days  
Heating Degree Days 0 0  
Month to date heating degree days 0 0  
Since 1 July heating degree days 0 0  
Cooling Degree Days 15 11  
Month to date cooling degree days 511 443  
Year to date cooling degree days 2647 2689  
Growing Degree Days 30 (Base 50)    
Moisture  
Dew Point 72 °F    
Average Humidity 82    
Maximum Humidity 94    
Minimum Humidity 70    
Precipitation  
Precipitation 1.23 in 0.12 in 2.53 in (1956)
Month to date precipitation 8.68 4.97  
Year to date precipitation 58.99 49.18  
Snow  
Snow 0.00 in - - ()
Month to date snowfall 0.0  
Since 1 July snowfall 0.0  
Since 1 September snowfall 0.0  
Snow Depth 0.00 in    
Sea Level Pressure  
Sea Level Pressure 29.93 in    
Wind  
Wind Speed 6 mph (SE)    
Max Wind Speed 13 mph    
Max Gust Speed 16 mph    
Visibility 10 miles    
Events Thunderstorm    
T = Trace of Precipitation, MM = Missing Value Source: NWS Daily Summary

Daily Weather History Graph

Daily Weather History Graph

Search for Another Location

Airport or City:

Trip Planner

Search our weather history database for the weather conditions in past years. The results will help you decide how hot, cold, wet, or windy it might be!

Date:

Astronomy

Sep. 30, 2013 Rise Set
Actual Time 6:53 AM CDT 6:46 PM CDT
Civil Twilight 6:29 AM CDT 7:10 PM CDT
Nautical Twilight 6:01 AM CDT 7:38 PM CDT
Astronomical Twilight 5:33 AM CDT 8:05 PM CDT
Moon 2:46 AM CDT (9/30) 4:03 PM CDT (9/30)
Length of Visible Light 12h 41m
Length of Day
11h 53m
Waning Crescent, 19% of the Moon is Illuminated
Sep 30
Waning Crescent
Oct 4
New
Oct 11
First Quarter
Oct 18
Full
Oct 26
Last Quarter

Hourly Weather History & Observations

Time (CDT) Temp. Heat Index Dew Point Humidity Pressure Visibility Wind Dir Wind Speed Gust Speed Precip Events Conditions
12:53 AM 79.0 °F - 71.1 °F 77% 29.93 in 10.0 mi SE 8.1 mph - N/A   Partly Cloudy
1:53 AM 79.0 °F - 71.1 °F 77% 29.92 in 10.0 mi SE 6.9 mph - N/A   Overcast
2:53 AM 78.1 °F - 72.0 °F 81% 29.91 in 10.0 mi SE 3.5 mph - N/A   Mostly Cloudy
3:53 AM 78.1 °F - 72.0 °F 81% 29.91 in 10.0 mi SE 3.5 mph - N/A   Overcast
4:53 AM 79.0 °F - 72.0 °F 79% 29.91 in 10.0 mi ESE 4.6 mph - N/A   Overcast
5:53 AM 79.0 °F - 72.0 °F 79% 29.92 in 10.0 mi SE 4.6 mph - N/A   Overcast
6:53 AM 79.0 °F - 72.0 °F 79% 29.93 in 10.0 mi SE 4.6 mph - N/A   Overcast
7:53 AM 79.0 °F - 72.0 °F 79% 29.93 in 10.0 mi SE 4.6 mph - N/A   Partly Cloudy
8:53 AM 80.1 °F 83.8 °F 72.0 °F 76% 29.94 in 10.0 mi SSE 12.7 mph - N/A   Mostly Cloudy
9:53 AM 79.0 °F - 72.0 °F 79% 29.95 in 10.0 mi SE 9.2 mph - N/A   Overcast
10:53 AM 80.1 °F 83.6 °F 71.1 °F 74% 29.95 in 10.0 mi SE 8.1 mph - N/A   Mostly Cloudy
11:53 AM 82.0 °F 85.9 °F 70.0 °F 67% 29.95 in 10.0 mi SSE 12.7 mph - N/A   Mostly Cloudy
12:53 PM 82.9 °F 88.8 °F 73.0 °F 72% 29.94 in 10.0 mi SE 9.2 mph - N/A   Overcast
1:53 PM 82.9 °F 88.0 °F 72.0 °F 69% 29.91 in 10.0 mi SE 11.5 mph - N/A   Overcast
2:00 PM 82.4 °F 88.2 °F 73.4 °F 74% 29.93 in 10.0 mi SE 9.2 mph - N/A   Mostly Cloudy
2:53 PM 81.0 °F 85.8 °F 73.0 °F 77% 29.91 in 10.0 mi SSE 8.1 mph - 0.01 in   Overcast
3:53 PM 81.0 °F 85.2 °F 72.0 °F 74% 29.90 in 10.0 mi SSE 6.9 mph - N/A   Overcast
4:00 PM 80.6 °F 84.6 °F 71.6 °F 74% 29.92 in 10.0 mi SE 8.1 mph - N/A   Mostly Cloudy
4:53 PM 81.0 °F 85.8 °F 73.0 °F 77% 29.92 in 10.0 mi SE 3.5 mph - N/A   Mostly Cloudy
5:25 PM 80.6 °F 85.4 °F 73.4 °F 79% 29.94 in 10.0 mi SSE 3.5 mph - N/A Thunderstorm Thunderstorm
5:53 PM 79.0 °F - 73.0 °F 82% 29.93 in 10.0 mi WNW 3.5 mph - N/A Thunderstorm Thunderstorm
6:07 PM 78.8 °F - 73.4 °F 83% 29.95 in 10.0 mi West 9.2 mph - N/A Thunderstorm Thunderstorm
6:20 PM 78.8 °F - 73.4 °F 83% 29.94 in 9.0 mi NW 5.8 mph - N/A Thunderstorm Thunderstorm
6:53 PM 78.1 °F - 73.9 °F 87% 29.92 in 9.0 mi Calm Calm - 0.02 in Thunderstorm Thunderstorm
7:53 PM 78.1 °F - 73.9 °F 87% 29.92 in 10.0 mi ESE 5.8 mph - 0.01 in Thunderstorm Thunderstorm
8:53 PM 78.1 °F - 72.0 °F 81% 29.94 in 10.0 mi ESE 5.8 mph - N/A Thunderstorm Thunderstorm
9:53 PM 78.1 °F - 72.0 °F 81% 29.94 in 10.0 mi SE 8.1 mph - N/A Thunderstorm Thunderstorm
10:53 PM 78.1 °F - 72.0 °F 81% 29.95 in 10.0 mi SE 8.1 mph - N/A Thunderstorm Thunderstorm
11:53 PM 78.1 °F - 71.1 °F 79% 29.95 in 10.0 mi ESE 11.5 mph - N/A Thunderstorm Thunderstorm